HVN1 YSSY-VVTS

Flight info

Callsign HVN1
Flight time 6h 13m
Altitude 36000
Route KADOM1/34L KADOM A576 APOMA/N0495F380 A576 POLEV T25 TNK J30 TN J251 DN M768 ADNAT/N0487F400 M768 AKMON/K0902F400 M768 ELSAS ELSAS5C
Aircraft B789/H-SDE1E2E3FGHIJ2J3J4J5M1RWXY/LB1D1

Departure

Time 2026-05-04 06:29
Airport Sydney Kingsford Smith International Airport (YSSY)

Arrival

Time 2026-05-04 12:42
Airport Tan Son Nhat International Airport (VVTS)
Time Latitude Longitude Altitude Speed Heading
2026-05-04 06:01 -33.94566 151.16910 28 ft 0 kts 163°
2026-05-04 06:13 -33.94497 151.16877 27 ft 4 kts 150°
2026-05-04 06:14 -33.94446 151.16811 27 ft 0 kts 75°
2026-05-04 06:17 -33.94445 151.16818 27 ft 2 kts 75°
2026-05-04 06:18 -33.94442 151.16829 28 ft 3 kts 75°
2026-05-04 06:18 -33.94433 151.16873 28 ft 6 kts 75°
2026-05-04 06:18 -33.94421 151.16927 28 ft 8 kts 74°
2026-05-04 06:20 -33.94487 151.17358 32 ft 14 kts 168°
2026-05-04 06:20 -33.94600 151.17387 32 ft 19 kts 167°
2026-05-04 06:21 -33.95205 151.17545 26 ft 21 kts 167°
2026-05-04 06:21 -33.95355 151.17583 27 ft 22 kts 169°
2026-05-04 06:22 -33.95506 151.17621 30 ft 22 kts 167°
2026-05-04 06:22 -33.95655 151.17661 29 ft 22 kts 167°
2026-05-04 06:25 -33.96421 151.17879 29 ft 0 kts 126°
2026-05-04 06:26 -33.96422 151.17880 29 ft 1 kts 126°
2026-05-04 06:26 -33.96427 151.17891 29 ft 3 kts 117°
2026-05-04 06:26 -33.96435 151.17934 29 ft 7 kts 93°
2026-05-04 06:27 -33.96372 151.18050 29 ft 0 kts 349°
2026-05-04 06:28 -33.96334 151.18041 29 ft 18 kts 348°
2026-05-04 06:28 -33.95969 151.17946 26 ft 90 kts 348°
2026-05-04 06:28 -33.95137 151.17731 28 ft 155 kts 348°
2026-05-04 06:29 -33.94030 151.17422 632 ft 159 kts 345°
2026-05-04 06:29 -33.92923 151.17037 1220 ft 171 kts 338°
2026-05-04 06:29 -33.92132 151.15913 1809 ft 189 kts 301°
2026-05-04 06:29 -33.91451 151.14438 2150 ft 215 kts 305°
2026-05-04 06:30 -33.90604 151.12890 2829 ft 228 kts 306°
2026-05-04 06:30 -33.89685 151.11211 3516 ft 243 kts 305°
2026-05-04 06:30 -33.88780 151.09514 4672 ft 241 kts 304°
2026-05-04 06:30 -33.87869 151.07809 5703 ft 243 kts 304°
2026-05-04 06:31 -33.86946 151.06090 6699 ft 247 kts 304°
2026-05-04 06:31 -33.86017 151.04361 7613 ft 251 kts 304°
2026-05-04 06:31 -33.85059 151.02579 8509 ft 255 kts 304°
2026-05-04 06:31 -33.84187 151.00700 9371 ft 262 kts 290°
2026-05-04 06:32 -33.83769 150.98541 10191 ft 269 kts 286°
2026-05-04 06:33 -33.80351 150.79872 14624 ft 348 kts 285°
2026-05-04 06:34 -33.79827 150.77015 15376 ft 351 kts 285°
2026-05-04 06:34 -33.79304 150.74174 16109 ft 354 kts 285°
2026-05-04 06:34 -33.78768 150.71263 16850 ft 358 kts 285°
2026-05-04 06:34 -33.78228 150.68334 17574 ft 361 kts 285°
2026-05-04 06:35 -33.77681 150.65372 18304 ft 364 kts 285°
2026-05-04 06:36 -33.73763 150.44280 22757 ft 375 kts 285°
2026-05-04 06:37 -33.73191 150.41220 23322 ft 376 kts 285°
2026-05-04 06:37 -33.72616 150.38147 23829 ft 378 kts 285°
2026-05-04 06:37 -33.72045 150.35095 24231 ft 381 kts 285°
2026-05-04 06:37 -33.71460 150.31983 24650 ft 383 kts 285°
2026-05-04 06:38 -33.70789 150.28866 25027 ft 384 kts 291°
2026-05-04 06:38 -33.69938 150.25815 25407 ft 387 kts 290°
2026-05-04 06:40 -33.63969 150.03829 27977 ft 405 kts 291°
2026-05-04 06:40 -33.63085 150.00603 28344 ft 407 kts 291°
2026-05-04 06:40 -33.62200 149.97374 28712 ft 409 kts 291°
2026-05-04 06:40 -33.61309 149.94119 29021 ft 412 kts 291°
2026-05-04 06:41 -33.60421 149.90887 29325 ft 414 kts 291°
2026-05-04 06:41 -33.59517 149.87598 29649 ft 416 kts 291°
2026-05-04 06:41 -33.58604 149.84283 29972 ft 419 kts 291°
2026-05-04 06:41 -33.57689 149.80959 30258 ft 421 kts 291°
2026-05-04 06:42 -33.56768 149.77618 30594 ft 420 kts 291°
2026-05-04 06:42 -33.55848 149.74287 30916 ft 420 kts 291°
2026-05-04 06:42 -33.54928 149.70959 31224 ft 421 kts 291°
2026-05-04 06:44 -33.48461 149.47683 33158 ft 422 kts 290°
2026-05-04 06:44 -33.47530 149.44348 33402 ft 422 kts 290°
2026-05-04 06:44 -33.46598 149.41010 33613 ft 423 kts 290°
2026-05-04 06:45 -33.45663 149.37670 33856 ft 423 kts 290°
2026-05-04 06:45 -33.44728 149.34332 34117 ft 422 kts 290°
2026-05-04 06:45 -33.43794 149.31001 34398 ft 420 kts 290°
2026-05-04 06:45 -33.42864 149.27686 34622 ft 420 kts 290°
2026-05-04 06:46 -33.41946 149.24423 34859 ft 419 kts 290°
2026-05-04 06:46 -33.41016 149.21117 35108 ft 418 kts 290°
2026-05-04 06:46 -33.40091 149.17833 35330 ft 417 kts 290°
2026-05-04 06:46 -33.39163 149.14542 35555 ft 416 kts 290°
2026-05-04 06:48 -33.27232 148.72574 36022 ft 414 kts 290°
2026-05-04 06:48 -33.25364 148.66057 36025 ft 414 kts 290°
2026-05-04 06:50 -33.08531 148.15210 36041 ft 414 kts 302°
2026-05-04 06:51 -33.02279 148.03704 36046 ft 413 kts 302°
2026-05-04 06:51 -32.96034 147.92237 36042 ft 411 kts 302°
2026-05-04 06:52 -32.89795 147.80811 36049 ft 411 kts 302°
2026-05-04 06:52 -32.83601 147.69502 36042 ft 411 kts 302°
2026-05-04 06:53 -32.77322 147.58073 36046 ft 410 kts 302°
2026-05-04 06:53 -32.71104 147.46786 36046 ft 410 kts 302°
2026-05-04 06:54 -32.64851 147.35472 36041 ft 409 kts 302°
2026-05-04 06:54 -32.58580 147.24159 36039 ft 410 kts 302°
2026-05-04 06:55 -32.52303 147.12871 36038 ft 409 kts 302°
2026-05-04 06:55 -32.46050 147.01658 36041 ft 408 kts 302°
2026-05-04 06:57 -32.20937 146.56958 36043 ft 408 kts 302°
2026-05-04 06:58 -32.14634 146.45821 36040 ft 408 kts 302°
2026-05-04 06:58 -32.08335 146.34724 36044 ft 408 kts 302°
2026-05-04 06:59 -32.02008 146.23609 36042 ft 408 kts 302°
2026-05-04 06:59 -31.95669 146.12507 36042 ft 408 kts 303°
2026-05-04 07:01 -31.70332 145.68448 36051 ft 407 kts 303°
2026-05-04 07:02 -31.64004 145.57522 36048 ft 407 kts 303°
2026-05-04 07:02 -31.57628 145.46546 36045 ft 406 kts 303°
2026-05-04 07:03 -31.51246 145.35589 36041 ft 406 kts 303°
2026-05-04 07:03 -31.44864 145.24665 36045 ft 406 kts 303°
2026-05-04 07:04 -31.38465 145.13740 36053 ft 406 kts 303°
2026-05-04 07:04 -31.32061 145.02839 36050 ft 406 kts 303°
2026-05-04 07:05 -31.26730 144.93789 36053 ft 406 kts 303°
2026-05-04 07:05 -31.19272 144.81159 36056 ft 406 kts 303°
2026-05-04 07:06 -31.10678 144.66658 36058 ft 406 kts 303°
2026-05-04 07:07 -31.04281 144.55898 36054 ft 405 kts 303°
2026-05-04 07:09 -30.78470 144.12783 36057 ft 406 kts 303°
2026-05-04 07:09 -30.71971 144.02000 36064 ft 407 kts 304°
2026-05-04 07:10 -30.65514 143.91315 36062 ft 407 kts 304°
2026-05-04 07:12 -30.39427 143.48440 36073 ft 406 kts 304°
2026-05-04 07:12 -30.32894 143.37774 36075 ft 406 kts 304°
2026-05-04 07:13 -30.26354 143.27127 36078 ft 405 kts 304°
2026-05-04 07:13 -30.19815 143.16507 36075 ft 405 kts 304°
2026-05-04 07:14 -30.03379 142.89959 36084 ft 407 kts 304°
2026-05-04 07:15 -29.96783 142.79355 36080 ft 406 kts 304°
2026-05-04 07:15 -29.90174 142.68757 36081 ft 406 kts 304°
2026-05-04 07:16 -29.83566 142.58196 36084 ft 407 kts 304°
2026-05-04 07:16 -29.76932 142.47621 36087 ft 407 kts 304°
2026-05-04 07:17 -29.70317 142.37102 36086 ft 408 kts 305°
2026-05-04 07:17 -29.63660 142.26545 36089 ft 408 kts 305°
2026-05-04 07:18 -29.56973 142.15967 36093 ft 409 kts 305°
2026-05-04 07:18 -29.50271 142.05393 36091 ft 409 kts 305°
2026-05-04 07:19 -29.43577 141.94858 36093 ft 408 kts 305°
2026-05-04 07:19 -29.36886 141.84356 36088 ft 407 kts 305°
2026-05-04 07:20 -29.30230 141.73935 36084 ft 407 kts 305°
2026-05-04 07:20 -29.23531 141.63471 36096 ft 407 kts 305°
2026-05-04 07:22 -28.96687 141.21809 36089 ft 409 kts 305°
2026-05-04 07:23 -28.89897 141.11337 36099 ft 409 kts 305°
2026-05-04 07:23 -28.83114 141.00902 36093 ft 410 kts 306°
2026-05-04 07:24 -28.76303 140.90448 36102 ft 410 kts 306°
2026-05-04 07:24 -28.69478 140.80000 36099 ft 411 kts 306°
2026-05-04 07:26 -28.42072 140.38304 36101 ft 412 kts 306°
2026-05-04 07:27 -28.35183 140.27887 36104 ft 412 kts 306°
2026-05-04 07:27 -28.28297 140.17500 36108 ft 412 kts 306°
2026-05-04 07:28 -28.21396 140.07115 36112 ft 412 kts 306°
2026-05-04 07:28 -28.14535 139.96817 36114 ft 412 kts 306°
2026-05-04 07:29 -28.07626 139.86471 36111 ft 412 kts 306°
2026-05-04 07:29 -28.00729 139.76166 36112 ft 412 kts 306°
2026-05-04 07:30 -27.93768 139.65792 36107 ft 413 kts 306°
2026-05-04 07:30 -27.86812 139.55451 36388 ft 411 kts 306°
2026-05-04 07:31 -27.83358 139.50325 36863 ft 410 kts 306°
2026-05-04 07:31 -27.79896 139.45192 37256 ft 410 kts 306°
2026-05-04 07:33 -27.55643 139.09411 38123 ft 409 kts 306°
2026-05-04 07:33 -27.52174 139.04316 38119 ft 409 kts 306°
2026-05-04 07:33 -27.45228 138.94135 38119 ft 410 kts 306°
2026-05-04 07:34 -27.38276 138.83968 38125 ft 410 kts 306°
2026-05-04 07:34 -27.31350 138.73861 38129 ft 410 kts 306°
2026-05-04 07:35 -27.24379 138.63713 38135 ft 410 kts 306°
2026-05-04 07:35 -27.17401 138.53578 38133 ft 410 kts 306°
2026-05-04 07:36 -27.10403 138.43437 38130 ft 411 kts 306°
2026-05-04 07:38 -26.82748 138.11546 38135 ft 421 kts 326°
2026-05-04 07:38 -26.77562 138.08457 38141 ft 422 kts 327°
2026-05-04 07:38 -26.67160 138.02419 38141 ft 421 kts 327°
2026-05-04 07:39 -26.56778 137.96394 38136 ft 420 kts 327°
2026-05-04 07:39 -26.46399 137.90379 38131 ft 419 kts 327°
2026-05-04 07:40 -26.36149 137.84450 38128 ft 418 kts 327°
2026-05-04 07:40 -26.25834 137.78495 38117 ft 416 kts 327°
2026-05-04 07:41 -26.15537 137.72562 38121 ft 415 kts 327°
2026-05-04 07:41 -26.05265 137.66655 38123 ft 414 kts 327°
2026-05-04 07:42 -25.95027 137.60780 38114 ft 414 kts 327°
2026-05-04 07:42 -25.84866 137.54960 38124 ft 413 kts 327°
2026-05-04 07:43 -25.74654 137.49122 38130 ft 412 kts 327°
2026-05-04 07:43 -25.64440 137.43295 38122 ft 412 kts 327°
2026-05-04 07:44 -25.54266 137.37501 38128 ft 411 kts 327°
2026-05-04 07:44 -25.44090 137.31718 38122 ft 411 kts 327°
2026-05-04 07:45 -25.33903 137.25939 38120 ft 411 kts 327°
2026-05-04 07:45 -25.23731 137.20180 38125 ft 410 kts 327°
2026-05-04 07:46 -25.13568 137.14436 38123 ft 410 kts 327°
2026-05-04 07:46 -25.03496 137.08755 38117 ft 409 kts 327°
2026-05-04 07:47 -24.93330 137.03032 38117 ft 410 kts 327°
2026-05-04 07:49 -24.52754 136.80293 38114 ft 410 kts 327°
2026-05-04 07:49 -24.42589 136.74623 38110 ft 410 kts 327°
2026-05-04 07:50 -24.32430 136.68967 38113 ft 409 kts 327°
2026-05-04 07:50 -24.22241 136.63305 38107 ft 410 kts 327°
2026-05-04 07:51 -24.12031 136.57640 38114 ft 410 kts 327°
2026-05-04 07:51 -24.03556 136.52946 38116 ft 411 kts 327°
2026-05-04 07:52 -23.93340 136.47298 38105 ft 412 kts 327°
2026-05-04 07:52 -23.83105 136.41649 38111 ft 412 kts 327°
2026-05-04 07:54 -23.42085 136.19108 38100 ft 414 kts 327°
2026-05-04 07:55 -23.31776 136.13468 38104 ft 414 kts 327°
2026-05-04 07:55 -23.21461 136.07835 38103 ft 415 kts 327°
2026-05-04 07:56 -23.11123 136.02199 38109 ft 415 kts 327°
2026-05-04 07:56 -23.00776 135.96567 38098 ft 417 kts 327°
2026-05-04 07:57 -22.90466 135.90966 38103 ft 418 kts 327°
2026-05-04 07:57 -22.80053 135.85318 38104 ft 419 kts 327°
2026-05-04 07:58 -22.69608 135.79665 38092 ft 420 kts 327°
2026-05-04 07:58 -22.59145 135.74013 38096 ft 420 kts 327°
2026-05-04 07:59 -22.48666 135.68362 38090 ft 421 kts 327°
2026-05-04 07:59 -22.38165 135.62710 38092 ft 421 kts 327°
2026-05-04 08:00 -22.27635 135.57051 38091 ft 423 kts 327°
2026-05-04 08:02 -21.85330 135.34411 38081 ft 428 kts 327°
2026-05-04 08:02 -21.74652 135.28721 38080 ft 428 kts 327°
2026-05-04 08:03 -21.63937 135.23020 38072 ft 430 kts 327°
2026-05-04 08:03 -21.53221 135.17329 38080 ft 430 kts 327°
2026-05-04 08:04 -21.42481 135.11634 38060 ft 432 kts 327°
2026-05-04 08:04 -21.31698 135.05935 38067 ft 433 kts 327°
2026-05-04 08:05 -21.20881 135.00227 38065 ft 434 kts 327°
2026-05-04 08:05 -21.10068 134.94532 38060 ft 435 kts 327°
2026-05-04 08:06 -20.99177 134.88804 38062 ft 436 kts 327°
2026-05-04 08:06 -20.88280 134.83082 38051 ft 437 kts 327°
2026-05-04 08:08 -20.44440 134.60156 38036 ft 440 kts 328°
2026-05-04 08:11 -19.94759 134.34352 38020 ft 443 kts 328°
2026-05-04 08:11 -19.78134 134.25758 38008 ft 445 kts 328°
2026-05-04 08:12 -19.66978 134.20002 38009 ft 446 kts 328°
2026-05-04 08:12 -19.55299 134.15203 38011 ft 454 kts 334°
2026-05-04 08:13 -19.43274 134.10820 37996 ft 457 kts 334°
2026-05-04 08:13 -19.31206 134.06424 37998 ft 458 kts 334°
2026-05-04 08:14 -19.19194 134.02054 37994 ft 460 kts 334°
2026-05-04 08:16 -18.70566 133.84433 37981 ft 464 kts 334°
2026-05-04 08:16 -18.58351 133.80024 37972 ft 464 kts 334°
2026-05-04 08:17 -18.46076 133.75599 37971 ft 466 kts 334°
2026-05-04 08:17 -18.33787 133.71176 37963 ft 466 kts 334°
2026-05-04 08:19 -17.84526 133.53514 37955 ft 470 kts 335°
2026-05-04 08:20 -17.72132 133.49087 37948 ft 471 kts 335°
2026-05-04 08:20 -17.59711 133.44656 37947 ft 472 kts 335°
2026-05-04 08:21 -17.47293 133.40233 37937 ft 473 kts 335°
2026-05-04 08:21 -17.34763 133.35777 37945 ft 474 kts 335°
2026-05-04 08:22 -17.22253 133.31334 37937 ft 474 kts 335°
2026-05-04 08:24 -16.72268 133.13669 37931 ft 476 kts 336°
2026-05-04 08:24 -16.59610 133.09222 37929 ft 477 kts 336°
2026-05-04 08:25 -16.46997 133.04798 37931 ft 478 kts 336°
2026-05-04 08:25 -16.34443 133.00399 37921 ft 476 kts 336°
2026-05-04 08:27 -15.84104 132.82823 37907 ft 477 kts 336°
2026-05-04 08:28 -15.71513 132.78442 37903 ft 477 kts 337°
2026-05-04 08:28 -15.58983 132.74088 37895 ft 478 kts 337°
2026-05-04 08:29 -15.46369 132.69709 37899 ft 478 kts 337°
2026-05-04 08:31 -14.95827 132.52222 37888 ft 478 kts 337°
2026-05-04 08:33 -14.46305 132.33098 37945 ft 470 kts 322°
2026-05-04 08:35 -14.02967 132.02600 37868 ft 473 kts 322°
2026-05-04 08:35 -13.92166 131.95012 37867 ft 474 kts 322°
2026-05-04 08:37 -13.53984 131.68258 37847 ft 475 kts 323°
2026-05-04 08:38 -13.43054 131.60620 37848 ft 475 kts 323°
2026-05-04 08:38 -13.33949 131.54264 37854 ft 476 kts 323°
2026-05-04 08:40 -12.90039 131.23700 37859 ft 478 kts 323°
2026-05-04 08:41 -12.79012 131.16047 37855 ft 479 kts 323°
2026-05-04 08:41 -12.66177 131.07151 37860 ft 479 kts 323°
2026-05-04 08:42 -12.56990 131.00790 37866 ft 478 kts 323°
2026-05-04 08:42 -12.45937 130.93144 37875 ft 479 kts 323°
2026-05-04 08:42 -12.40753 130.88954 37921 ft 473 kts 310°
2026-05-04 08:43 -12.36293 130.83959 37894 ft 475 kts 310°
2026-05-04 08:43 -12.27294 130.74040 37892 ft 475 kts 310°
2026-05-04 08:44 -12.18345 130.64172 37889 ft 476 kts 310°
2026-05-04 08:46 -11.82186 130.24391 37885 ft 478 kts 311°
2026-05-04 08:46 -11.73116 130.14437 37888 ft 478 kts 311°
2026-05-04 08:47 -11.64042 130.04492 37884 ft 478 kts 311°
2026-05-04 08:47 -11.54956 129.94540 37862 ft 479 kts 312°
2026-05-04 08:47 -11.50297 129.89673 37583 ft 491 kts 320°
2026-05-04 08:48 -11.44919 129.85350 37325 ft 491 kts 321°
2026-05-04 08:48 -11.39635 129.80951 37067 ft 489 kts 320°
2026-05-04 08:48 -11.34345 129.76609 36810 ft 488 kts 321°
2026-05-04 08:48 -11.29067 129.72263 36573 ft 488 kts 320°
2026-05-04 08:49 -11.23773 129.67904 36334 ft 487 kts 321°
2026-05-04 08:50 -10.86718 129.37479 36310 ft 490 kts 321°
2026-05-04 08:51 -10.76052 129.28739 36439 ft 494 kts 321°
2026-05-04 08:51 -10.70707 129.24362 36903 ft 492 kts 321°
2026-05-04 08:51 -10.65378 129.20001 37282 ft 493 kts 321°
2026-05-04 08:52 -10.60030 129.15620 37670 ft 492 kts 319°
2026-05-04 08:52 -10.55014 129.10872 38025 ft 492 kts 316°
2026-05-04 08:52 -10.50024 129.06120 38355 ft 493 kts 317°
2026-05-04 08:52 -10.44984 129.01348 38344 ft 495 kts 316°
2026-05-04 08:54 -10.05006 128.63449 38343 ft 490 kts 316°
2026-05-04 08:55 -9.95402 128.54367 38340 ft 489 kts 316°
2026-05-04 08:55 -9.91799 128.50961 38342 ft 489 kts 316°
2026-05-04 09:01 -9.04119 127.68490 39335 ft 477 kts 316°
2026-05-04 09:01 -9.01642 127.66225 38944 ft 478 kts 316°
2026-05-04 09:01 -8.99206 127.63980 38913 ft 472 kts 316°
2026-05-04 09:02 -8.94324 127.59481 38914 ft 478 kts 316°
2026-05-04 09:02 -8.89375 127.54938 38918 ft 481 kts 316°
2026-05-04 09:03 -8.84420 127.50379 38918 ft 482 kts 316°
2026-05-04 09:03 -8.79452 127.45833 38917 ft 482 kts 316°
2026-05-04 09:04 -8.74502 127.41300 38919 ft 482 kts 316°
2026-05-04 09:04 -8.69533 127.36749 38917 ft 482 kts 316°
2026-05-04 09:05 -8.64556 127.32184 38920 ft 482 kts 316°
2026-05-04 09:05 -8.59602 127.27615 38919 ft 482 kts 316°
2026-05-04 09:06 -8.54694 127.23046 38916 ft 482 kts 314°
2026-05-04 09:07 -8.37421 127.07058 39052 ft 483 kts 317°
2026-05-04 09:08 -8.34892 127.04816 39264 ft 482 kts 317°
2026-05-04 09:08 -8.32362 127.02577 39458 ft 481 kts 317°
2026-05-04 09:08 -8.29849 127.00355 39645 ft 481 kts 317°
2026-05-04 09:08 -8.27339 126.98134 39834 ft 480 kts 317°
2026-05-04 09:09 -8.24819 126.95903 39895 ft 482 kts 317°
2026-05-04 09:09 -8.19794 126.91454 39894 ft 482 kts 317°
2026-05-04 09:10 -8.14767 126.86995 39590 ft 481 kts 317°
2026-05-04 09:10 -8.12251 126.84759 39181 ft 483 kts 317°
2026-05-04 09:10 -8.09732 126.82517 38905 ft 482 kts 317°
2026-05-04 09:11 -8.04737 126.78067 38910 ft 481 kts 317°
2026-05-04 09:11 -7.99679 126.73552 38913 ft 486 kts 317°
2026-05-04 09:12 -7.94623 126.69040 38910 ft 484 kts 317°
2026-05-04 09:14 -7.74540 126.51212 39887 ft 478 kts 317°
2026-05-04 09:14 -7.69516 126.46769 39895 ft 480 kts 317°
2026-05-04 09:15 -7.64540 126.42284 39891 ft 479 kts 315°
2026-05-04 09:15 -7.59688 126.37685 39896 ft 478 kts 315°
2026-05-04 09:17 -7.37742 126.17112 39872 ft 480 kts 316°
2026-05-04 09:18 -7.32849 126.12528 39871 ft 479 kts 316°
2026-05-04 09:18 -7.27965 126.07950 39875 ft 479 kts 316°
2026-05-04 09:19 -7.23088 126.03382 39884 ft 478 kts 316°
2026-05-04 09:19 -7.18241 125.98843 39869 ft 478 kts 315°
2026-05-04 09:20 -7.13366 125.94279 39887 ft 478 kts 316°
2026-05-04 09:20 -7.08484 125.89710 39889 ft 478 kts 316°
2026-05-04 09:21 -7.03605 125.85146 39883 ft 479 kts 316°
2026-05-04 09:21 -6.98730 125.80586 39886 ft 478 kts 316°
2026-05-04 09:22 -6.93860 125.76033 39887 ft 478 kts 315°
2026-05-04 09:22 -6.88983 125.71473 39890 ft 478 kts 316°
2026-05-04 09:23 -6.84106 125.66917 39887 ft 478 kts 315°
2026-05-04 09:23 -6.79217 125.62350 39889 ft 479 kts 315°
2026-05-04 09:25 -6.59691 125.44122 39893 ft 479 kts 315°
2026-05-04 09:26 -6.55629 125.40333 39886 ft 479 kts 316°
2026-05-04 09:26 -6.49950 125.35037 39886 ft 479 kts 316°
2026-05-04 09:27 -6.45850 125.31215 39888 ft 479 kts 316°
2026-05-04 09:27 -6.40989 125.26684 39890 ft 479 kts 316°
2026-05-04 09:28 -6.36102 125.22129 39888 ft 479 kts 316°
2026-05-04 09:28 -6.31210 125.17572 39885 ft 480 kts 316°
2026-05-04 09:29 -6.26307 125.13006 39889 ft 480 kts 316°
2026-05-04 09:29 -6.21411 125.08447 39889 ft 480 kts 315°
2026-05-04 09:30 -6.16506 125.03880 39889 ft 480 kts 316°
2026-05-04 09:30 -6.11594 124.99310 39888 ft 481 kts 316°
2026-05-04 09:31 -6.06677 124.94734 39882 ft 481 kts 316°
2026-05-04 09:31 -6.01758 124.90161 39888 ft 482 kts 316°
2026-05-04 09:32 -5.96841 124.85588 39889 ft 482 kts 316°
2026-05-04 09:34 -5.77151 124.67290 39889 ft 483 kts 316°
2026-05-04 09:34 -5.72210 124.62701 39888 ft 484 kts 316°
2026-05-04 09:35 -5.67299 124.58143 39885 ft 484 kts 316°
2026-05-04 09:35 -5.62355 124.53552 39887 ft 484 kts 316°
2026-05-04 09:37 -5.42571 124.35200 39885 ft 485 kts 316°
2026-05-04 09:38 -5.37584 124.30576 39888 ft 485 kts 316°
2026-05-04 09:38 -5.32648 124.26001 39888 ft 485 kts 316°
2026-05-04 09:39 -5.27689 124.21405 39889 ft 485 kts 316°
2026-05-04 09:39 -5.22733 124.16812 39889 ft 485 kts 316°
2026-05-04 09:40 -5.17780 124.12225 39886 ft 484 kts 316°
2026-05-04 09:40 -5.12853 124.07662 39884 ft 484 kts 316°
2026-05-04 09:42 -4.93041 123.89325 39882 ft 484 kts 316°
2026-05-04 09:43 -4.88125 123.84777 39885 ft 484 kts 316°
2026-05-04 09:43 -4.83183 123.80206 39879 ft 483 kts 316°
2026-05-04 09:44 -4.78238 123.75634 39879 ft 484 kts 316°
2026-05-04 09:46 -4.58397 123.57296 39889 ft 485 kts 316°
2026-05-04 09:46 -4.53463 123.52737 39886 ft 485 kts 316°
2026-05-04 09:47 -4.48492 123.48147 39889 ft 486 kts 316°
2026-05-04 09:49 -4.28596 123.29780 39893 ft 486 kts 316°
2026-05-04 09:51 -4.11153 123.13688 39897 ft 489 kts 316°
2026-05-04 09:51 -4.06147 123.09072 39894 ft 488 kts 316°
2026-05-04 09:52 -4.01154 123.04469 39890 ft 488 kts 316°
2026-05-04 09:52 -3.96186 122.99890 39889 ft 488 kts 316°
2026-05-04 09:53 -3.91177 122.95273 39886 ft 489 kts 316°
2026-05-04 09:53 -3.86167 122.90656 39890 ft 489 kts 316°
2026-05-04 09:54 -3.81164 122.86046 39889 ft 488 kts 316°
2026-05-04 09:54 -3.76158 122.81435 39885 ft 488 kts 316°
2026-05-04 09:55 -3.71193 122.76863 39890 ft 488 kts 316°
2026-05-04 09:55 -3.66187 122.72253 39887 ft 488 kts 316°
2026-05-04 09:56 -3.61192 122.67654 39886 ft 487 kts 316°
2026-05-04 09:56 -3.56204 122.63061 39883 ft 487 kts 316°
2026-05-04 09:57 -3.51214 122.58468 39888 ft 487 kts 316°
2026-05-04 09:57 -3.46260 122.53909 39887 ft 486 kts 316°
2026-05-04 09:58 -3.41282 122.49328 39888 ft 486 kts 316°
2026-05-04 09:58 -3.36297 122.44742 39893 ft 487 kts 316°
2026-05-04 10:00 -3.16335 122.26383 39906 ft 487 kts 316°
2026-05-04 10:04 -2.81388 121.94265 39914 ft 488 kts 316°
2026-05-04 10:04 -2.76381 121.89666 39922 ft 489 kts 316°
2026-05-04 10:05 -2.71366 121.85060 39924 ft 489 kts 316°
2026-05-04 10:05 -2.66359 121.80461 39923 ft 489 kts 316°
2026-05-04 10:06 -2.61349 121.75862 39922 ft 489 kts 317°
2026-05-04 10:06 -2.56366 121.71286 39921 ft 489 kts 317°
2026-05-04 10:08 -2.38780 121.55144 39921 ft 490 kts 317°
2026-05-04 10:08 -2.33761 121.50538 39920 ft 490 kts 317°
2026-05-04 10:09 -2.28777 121.45964 39917 ft 490 kts 317°
2026-05-04 10:09 -2.23759 121.41360 39916 ft 489 kts 317°
2026-05-04 10:10 -2.18734 121.36751 39912 ft 489 kts 317°
2026-05-04 10:10 -2.13717 121.32148 39915 ft 489 kts 317°
2026-05-04 10:11 -2.08698 121.27545 39916 ft 489 kts 317°
2026-05-04 10:11 -2.03676 121.22939 39921 ft 489 kts 317°
2026-05-04 10:12 -1.98701 121.18376 39925 ft 489 kts 317°
2026-05-04 10:12 -1.93688 121.13779 39934 ft 489 kts 317°
2026-05-04 10:13 -1.88673 121.09181 39935 ft 488 kts 317°
2026-05-04 10:13 -1.83660 121.04585 39941 ft 489 kts 317°
2026-05-04 10:14 -1.78679 121.00017 39944 ft 489 kts 317°
2026-05-04 10:16 -1.59448 120.82390 39949 ft 490 kts 317°
2026-05-04 10:16 -1.54421 120.77783 39944 ft 490 kts 317°
2026-05-04 10:17 -1.49388 120.73171 39940 ft 490 kts 317°
2026-05-04 10:19 -1.29281 120.54748 39931 ft 491 kts 317°
2026-05-04 10:19 -1.24271 120.50158 39923 ft 492 kts 317°
2026-05-04 10:20 -1.19225 120.45536 39926 ft 492 kts 317°
2026-05-04 10:20 -1.14172 120.40907 39928 ft 492 kts 317°
2026-05-04 10:21 -1.09122 120.36282 39921 ft 493 kts 317°
2026-05-04 10:21 -1.04067 120.31652 39912 ft 492 kts 317°
2026-05-04 10:22 -0.96486 120.24708 39912 ft 493 kts 317°
2026-05-04 10:23 -0.91461 120.20106 39905 ft 494 kts 317°
2026-05-04 10:25 -0.71208 120.01559 39898 ft 495 kts 317°
2026-05-04 10:25 -0.66155 119.96932 39897 ft 495 kts 317°
2026-05-04 10:26 -0.61065 119.92272 39894 ft 496 kts 317°
2026-05-04 10:26 -0.55974 119.87610 39890 ft 497 kts 317°
2026-05-04 10:27 -0.50874 119.82941 39886 ft 497 kts 317°
2026-05-04 10:27 -0.45767 119.78265 39882 ft 497 kts 317°
2026-05-04 10:28 -0.40700 119.73626 39876 ft 498 kts 317°
2026-05-04 10:28 -0.35588 119.68946 39880 ft 498 kts 317°
2026-05-04 10:29 -0.30482 119.64271 39872 ft 497 kts 317°
2026-05-04 10:29 -0.25382 119.59602 39870 ft 497 kts 317°
2026-05-04 10:30 -0.20288 119.54938 39868 ft 497 kts 317°
2026-05-04 10:30 -0.15181 119.50263 39869 ft 498 kts 317°
2026-05-04 10:31 -0.10103 119.45614 39867 ft 498 kts 317°
2026-05-04 10:32 0.07816 119.29210 39861 ft 498 kts 318°
2026-05-04 10:33 0.12920 119.24537 39861 ft 497 kts 318°
2026-05-04 10:33 0.17987 119.19898 39859 ft 496 kts 318°
2026-05-04 10:34 0.23100 119.15217 39859 ft 495 kts 318°
2026-05-04 10:34 0.28180 119.10566 39858 ft 495 kts 318°
2026-05-04 10:35 0.33240 119.05934 39855 ft 495 kts 318°
2026-05-04 10:35 0.38326 119.01278 39858 ft 495 kts 318°
2026-05-04 10:36 0.43401 118.96631 39855 ft 494 kts 318°
2026-05-04 10:36 0.48466 118.91994 39857 ft 494 kts 318°
2026-05-04 10:37 0.53517 118.87369 39859 ft 495 kts 318°
2026-05-04 10:37 0.58595 118.82720 39856 ft 495 kts 318°
2026-05-04 10:39 0.76284 118.66523 39863 ft 493 kts 318°
2026-05-04 10:40 0.81345 118.61888 39864 ft 493 kts 318°
2026-05-04 10:40 0.86403 118.57256 39868 ft 493 kts 318°
2026-05-04 10:41 0.91453 118.52631 39865 ft 492 kts 318°
2026-05-04 10:41 0.96506 118.48004 39869 ft 493 kts 319°
2026-05-04 10:42 1.01559 118.43376 39869 ft 493 kts 319°
2026-05-04 10:42 1.06622 118.38739 39872 ft 493 kts 319°
2026-05-04 10:43 1.11650 118.34133 39870 ft 492 kts 319°
2026-05-04 10:45 1.31857 118.15623 39872 ft 493 kts 318°
2026-05-04 10:45 1.36909 118.10994 39873 ft 493 kts 318°
2026-05-04 10:46 1.41965 118.06361 39873 ft 493 kts 318°
2026-05-04 10:46 1.47021 118.01728 39877 ft 493 kts 318°
2026-05-04 10:47 1.52068 117.97104 39873 ft 492 kts 318°
2026-05-04 10:47 1.57109 117.92484 39871 ft 491 kts 318°
2026-05-04 10:49 1.77261 117.74012 39878 ft 492 kts 318°
2026-05-04 10:50 1.82303 117.69391 39882 ft 491 kts 318°
2026-05-04 10:52 2.02452 117.50915 39876 ft 491 kts 318°
2026-05-04 10:52 2.07485 117.46298 39868 ft 491 kts 318°
2026-05-04 10:54 2.27577 117.27867 39863 ft 490 kts 318°
2026-05-04 10:56 2.47655 117.09441 39866 ft 490 kts 318°
2026-05-04 10:57 2.52683 117.04825 39867 ft 490 kts 318°
2026-05-04 10:57 2.57706 117.00214 39866 ft 490 kts 318°
2026-05-04 10:58 2.62734 116.95597 39871 ft 490 kts 318°
2026-05-04 10:58 2.67721 116.91018 39874 ft 490 kts 318°
2026-05-04 10:59 2.72746 116.86404 39874 ft 490 kts 318°
2026-05-04 10:59 2.77770 116.81789 39876 ft 490 kts 318°
2026-05-04 11:00 2.82793 116.77175 39885 ft 490 kts 318°
2026-05-04 11:02 3.02825 116.58767 39893 ft 488 kts 318°
2026-05-04 11:05 3.39355 116.25175 39906 ft 486 kts 318°
2026-05-04 11:06 3.44332 116.20595 39916 ft 488 kts 318°
2026-05-04 11:06 3.49380 116.15951 39925 ft 494 kts 318°
2026-05-04 11:10 3.84688 115.83437 39966 ft 493 kts 318°
2026-05-04 11:12 4.04831 115.64872 39988 ft 492 kts 318°
2026-05-04 11:12 4.09874 115.60222 39994 ft 493 kts 318°
2026-05-04 11:13 4.14921 115.55567 39991 ft 493 kts 318°
2026-05-04 11:13 4.19937 115.50940 39989 ft 493 kts 318°
2026-05-04 11:14 4.24980 115.46287 39985 ft 492 kts 318°
2026-05-04 11:16 4.45103 115.27714 39956 ft 494 kts 317°
2026-05-04 11:16 4.50160 115.23043 39950 ft 494 kts 317°
2026-05-04 11:17 4.55214 115.18375 39944 ft 494 kts 317°
2026-05-04 11:19 4.75354 114.99763 39917 ft 493 kts 317°
2026-05-04 11:19 4.80392 114.95105 39916 ft 493 kts 317°
2026-05-04 11:20 4.85446 114.90432 39918 ft 493 kts 317°
2026-05-04 11:20 4.89876 114.85264 39918 ft 494 kts 306°
2026-05-04 11:22 5.06060 114.62893 39906 ft 495 kts 306°
2026-05-04 11:23 5.10101 114.57309 39901 ft 494 kts 306°
2026-05-04 11:25 5.24221 114.37788 39901 ft 493 kts 307°
2026-05-04 11:25 5.28244 114.32224 39894 ft 493 kts 307°
2026-05-04 11:27 5.46308 114.07220 39887 ft 491 kts 307°
2026-05-04 11:28 5.50289 114.01705 39891 ft 491 kts 307°
2026-05-04 11:28 5.54296 113.96153 39895 ft 491 kts 307°
2026-05-04 11:29 5.58309 113.90591 39899 ft 491 kts 307°
2026-05-04 11:29 5.62307 113.85048 39897 ft 490 kts 307°
2026-05-04 11:33 5.90214 113.46319 39897 ft 488 kts 307°
2026-05-04 11:33 5.94197 113.40786 39897 ft 489 kts 307°
2026-05-04 11:34 5.98178 113.35253 39895 ft 489 kts 307°
2026-05-04 11:34 6.02163 113.29714 39894 ft 488 kts 307°
2026-05-04 11:35 6.06120 113.24211 39892 ft 489 kts 307°
2026-05-04 11:35 6.10104 113.18670 39898 ft 489 kts 307°
2026-05-04 11:36 6.14087 113.13129 39894 ft 489 kts 307°
2026-05-04 11:36 6.18066 113.07591 39889 ft 489 kts 307°
2026-05-04 11:37 6.22050 113.02045 39893 ft 489 kts 307°
2026-05-04 11:37 6.26036 112.96493 39896 ft 489 kts 307°
2026-05-04 11:38 6.29996 112.90977 39893 ft 489 kts 307°
2026-05-04 11:38 6.33986 112.85417 39889 ft 490 kts 307°
2026-05-04 11:39 6.37974 112.79859 39895 ft 490 kts 307°
2026-05-04 11:41 6.51928 112.60396 39889 ft 490 kts 307°
2026-05-04 11:41 6.55918 112.54827 39894 ft 491 kts 307°
2026-05-04 11:42 6.59888 112.49284 39891 ft 491 kts 307°
2026-05-04 11:42 6.63882 112.43706 39889 ft 492 kts 307°
2026-05-04 11:43 6.67881 112.38119 39894 ft 492 kts 307°
2026-05-04 11:43 6.71886 112.32522 39893 ft 492 kts 307°
2026-05-04 11:44 6.75863 112.26963 39895 ft 493 kts 307°
2026-05-04 11:44 6.79868 112.21361 39896 ft 493 kts 307°
2026-05-04 11:45 6.83872 112.15761 39894 ft 492 kts 307°
2026-05-04 11:45 6.87877 112.10156 39895 ft 492 kts 307°
2026-05-04 11:46 6.91868 112.04569 39893 ft 492 kts 307°
2026-05-04 11:46 6.95841 111.99006 39890 ft 493 kts 307°
2026-05-04 11:47 6.99848 111.93393 39891 ft 494 kts 307°
2026-05-04 11:47 7.03858 111.87775 39892 ft 494 kts 307°
2026-05-04 11:48 7.07871 111.82151 39888 ft 496 kts 306°
2026-05-04 11:48 7.11906 111.76492 39885 ft 497 kts 306°
2026-05-04 11:49 7.15937 111.70838 39885 ft 496 kts 306°
2026-05-04 11:49 7.19934 111.65230 39885 ft 496 kts 306°
2026-05-04 11:50 7.23953 111.59588 39882 ft 495 kts 306°
2026-05-04 11:50 7.27972 111.53944 39887 ft 495 kts 306°
2026-05-04 11:51 7.31978 111.48309 39885 ft 494 kts 307°
2026-05-04 11:51 7.35977 111.42682 39885 ft 494 kts 307°
2026-05-04 11:52 7.39971 111.37060 39887 ft 493 kts 307°
2026-05-04 11:52 7.43957 111.31446 39883 ft 492 kts 307°
2026-05-04 11:53 7.47946 111.25827 39885 ft 491 kts 307°
2026-05-04 11:53 7.51899 111.20257 39880 ft 491 kts 307°
2026-05-04 11:55 7.67071 110.98857 39880 ft 488 kts 307°
2026-05-04 11:56 7.71026 110.93273 39882 ft 488 kts 307°
2026-05-04 11:56 7.74945 110.87740 39883 ft 488 kts 307°
2026-05-04 11:57 7.78892 110.82163 39883 ft 487 kts 307°
2026-05-04 11:57 7.82825 110.76607 39884 ft 486 kts 307°
2026-05-04 11:58 7.86751 110.71053 39884 ft 486 kts 307°
2026-05-04 11:58 7.90668 110.65516 39880 ft 487 kts 307°
2026-05-04 11:59 7.94603 110.59947 39880 ft 488 kts 307°
2026-05-04 11:59 7.98543 110.54371 39883 ft 488 kts 307°
2026-05-04 12:00 8.02489 110.48785 39882 ft 488 kts 307°
2026-05-04 12:00 8.06430 110.43200 39886 ft 489 kts 307°
2026-05-04 12:01 8.10353 110.37642 39885 ft 489 kts 307°
2026-05-04 12:02 8.24180 110.18045 39881 ft 490 kts 307°
2026-05-04 12:03 8.28161 110.12438 39888 ft 491 kts 307°
2026-05-04 12:03 8.32133 110.06824 39887 ft 491 kts 307°
2026-05-04 12:04 8.36085 110.01241 39887 ft 491 kts 306°
2026-05-04 12:04 8.40061 109.95622 39890 ft 492 kts 306°
2026-05-04 12:05 8.44043 109.89994 39884 ft 492 kts 306°
2026-05-04 12:05 8.48025 109.84362 39889 ft 492 kts 306°
2026-05-04 12:06 8.52007 109.78727 39889 ft 492 kts 306°
2026-05-04 12:06 8.55962 109.73128 39887 ft 492 kts 306°
2026-05-04 12:07 8.59936 109.67500 39888 ft 492 kts 306°
2026-05-04 12:07 8.63911 109.61869 39890 ft 491 kts 306°
2026-05-04 12:08 8.67879 109.56246 39893 ft 491 kts 306°
2026-05-04 12:08 8.71841 109.50626 39887 ft 490 kts 306°
2026-05-04 12:09 8.75797 109.45014 39891 ft 489 kts 306°
2026-05-04 12:09 8.79745 109.39413 39887 ft 489 kts 306°
2026-05-04 12:10 8.83720 109.33887 39902 ft 488 kts 308°
2026-05-04 12:10 8.87725 109.28332 39893 ft 488 kts 306°
2026-05-04 12:11 8.91779 109.22813 39898 ft 489 kts 307°
2026-05-04 12:11 8.95822 109.17270 39903 ft 489 kts 307°
2026-05-04 12:12 8.99844 109.11760 39903 ft 490 kts 307°
2026-05-04 12:12 9.03894 109.06214 39900 ft 490 kts 307°
2026-05-04 12:14 9.20081 108.84008 39898 ft 491 kts 307°
2026-05-04 12:15 9.24131 108.78445 39899 ft 490 kts 307°
2026-05-04 12:15 9.28167 108.72899 39902 ft 489 kts 307°
2026-05-04 12:16 9.32200 108.67356 39904 ft 488 kts 307°
2026-05-04 12:16 9.36218 108.61831 39897 ft 486 kts 307°
2026-05-04 12:17 9.40203 108.56348 39897 ft 485 kts 307°
2026-05-04 12:17 9.44207 108.50839 39892 ft 485 kts 307°
2026-05-04 12:18 9.48200 108.45340 39894 ft 484 kts 307°
2026-05-04 12:18 9.52189 108.39845 39897 ft 484 kts 306°
2026-05-04 12:19 9.56177 108.34348 39896 ft 484 kts 306°
2026-05-04 12:19 9.60140 108.28885 39895 ft 484 kts 306°
2026-05-04 12:20 9.62133 108.26135 39794 ft 480 kts 306°
2026-05-04 12:20 9.64116 108.23399 38933 ft 485 kts 307°
2026-05-04 12:20 9.66129 108.20622 37983 ft 490 kts 307°
2026-05-04 12:20 9.68157 108.17824 36998 ft 495 kts 307°
2026-05-04 12:21 9.70207 108.14993 35953 ft 501 kts 307°
2026-05-04 12:21 9.72283 108.12126 34886 ft 508 kts 307°
2026-05-04 12:21 9.74390 108.09217 33823 ft 515 kts 307°
2026-05-04 12:21 9.76523 108.06270 32713 ft 519 kts 307°
2026-05-04 12:22 9.78637 108.03349 31750 ft 519 kts 306°
2026-05-04 12:22 9.80760 108.00414 31217 ft 510 kts 306°
2026-05-04 12:22 9.82848 107.97526 30556 ft 504 kts 306°
2026-05-04 12:22 9.84907 107.94679 29933 ft 497 kts 306°
2026-05-04 12:23 9.86945 107.91861 29176 ft 492 kts 306°
2026-05-04 12:23 9.88959 107.89073 28434 ft 486 kts 306°
2026-05-04 12:23 9.90951 107.86317 27723 ft 481 kts 306°
2026-05-04 12:23 9.92917 107.83596 27009 ft 476 kts 306°
2026-05-04 12:24 9.94838 107.80936 26308 ft 471 kts 306°
2026-05-04 12:24 9.96764 107.78269 25638 ft 466 kts 306°
2026-05-04 12:24 9.98671 107.75628 24964 ft 462 kts 306°
2026-05-04 12:24 10.00563 107.73006 24293 ft 457 kts 306°
2026-05-04 12:25 10.02433 107.70414 23640 ft 453 kts 306°
2026-05-04 12:25 10.04285 107.67847 22925 ft 448 kts 307°
2026-05-04 12:25 10.06123 107.65299 22144 ft 445 kts 307°
2026-05-04 12:25 10.07944 107.62774 21401 ft 440 kts 307°
2026-05-04 12:26 10.09723 107.60306 20686 ft 436 kts 307°
2026-05-04 12:26 10.11498 107.57843 20320 ft 424 kts 307°
2026-05-04 12:26 10.13203 107.55494 20305 ft 401 kts 309°
2026-05-04 12:26 10.15128 107.53571 20307 ft 378 kts 320°
2026-05-04 12:27 10.17066 107.51864 20273 ft 360 kts 320°
2026-05-04 12:27 10.18941 107.50213 19820 ft 356 kts 320°
2026-05-04 12:27 10.20826 107.48570 19234 ft 358 kts 320°
2026-05-04 12:27 10.22723 107.46916 18587 ft 362 kts 320°
2026-05-04 12:28 10.24643 107.45237 17860 ft 367 kts 320°
2026-05-04 12:28 10.26584 107.43537 17083 ft 370 kts 320°
2026-05-04 12:28 10.28543 107.41821 16316 ft 372 kts 320°
2026-05-04 12:28 10.30509 107.40099 15569 ft 374 kts 320°
2026-05-04 12:29 10.32478 107.38374 14842 ft 374 kts 320°
2026-05-04 12:29 10.34428 107.36666 14136 ft 374 kts 320°
2026-05-04 12:29 10.36388 107.34949 13397 ft 363 kts 320°
2026-05-04 12:29 10.38221 107.33339 12659 ft 335 kts 321°
2026-05-04 12:30 10.39924 107.31845 11943 ft 312 kts 321°
2026-05-04 12:30 10.41536 107.30434 11305 ft 304 kts 322°
2026-05-04 12:30 10.43141 107.29032 10891 ft 307 kts 322°
2026-05-04 12:30 10.44769 107.27605 10600 ft 306 kts 322°
2026-05-04 12:31 10.46361 107.26206 10331 ft 302 kts 322°
2026-05-04 12:31 10.47963 107.24802 10091 ft 304 kts 322°
2026-05-04 12:31 10.49566 107.23397 9853 ft 304 kts 322°
2026-05-04 12:31 10.51103 107.22049 9697 ft 304 kts 322°
2026-05-04 12:32 10.52692 107.20653 9463 ft 296 kts 322°
2026-05-04 12:32 10.55823 107.17906 9033 ft 300 kts 322°
2026-05-04 12:32 10.57398 107.16523 8810 ft 298 kts 322°
2026-05-04 12:33 10.58951 107.15158 8589 ft 293 kts 322°
2026-05-04 12:33 10.60505 107.13796 8376 ft 296 kts 322°
2026-05-04 12:33 10.62062 107.12429 8147 ft 296 kts 322°
2026-05-04 12:33 10.63610 107.11069 7926 ft 289 kts 322°
2026-05-04 12:34 10.65138 107.09726 7721 ft 292 kts 322°
2026-05-04 12:34 10.66683 107.08370 7509 ft 293 kts 322°
2026-05-04 12:34 10.68221 107.07018 7301 ft 291 kts 322°
2026-05-04 12:34 10.69733 107.05688 7090 ft 286 kts 322°
2026-05-04 12:35 10.71230 107.04374 6887 ft 289 kts 322°
2026-05-04 12:35 10.72753 107.03036 6689 ft 289 kts 321°
2026-05-04 12:35 10.74260 107.01709 6477 ft 282 kts 322°
2026-05-04 12:35 10.75750 107.00400 6282 ft 284 kts 321°
2026-05-04 12:36 10.77241 106.99091 6078 ft 284 kts 321°
2026-05-04 12:36 10.78742 106.97770 5875 ft 285 kts 321°
2026-05-04 12:36 10.80215 106.96474 5681 ft 278 kts 321°
2026-05-04 12:36 10.81692 106.95175 5483 ft 282 kts 321°
2026-05-04 12:37 10.83174 106.93871 5302 ft 282 kts 321°
2026-05-04 12:37 10.84651 106.92571 5117 ft 275 kts 320°
2026-05-04 12:37 10.86087 106.91291 4924 ft 270 kts 317°
2026-05-04 12:37 10.87069 106.89762 4689 ft 260 kts 290°
2026-05-04 12:38 10.87447 106.87980 4346 ft 256 kts 279°
2026-05-04 12:38 10.87737 106.86175 3963 ft 258 kts 279°
2026-05-04 12:38 10.88018 106.84376 3563 ft 257 kts 279°
2026-05-04 12:38 10.88282 106.82585 3183 ft 254 kts 273°
2026-05-04 12:39 10.87946 106.80866 2874 ft 246 kts 248°
2026-05-04 12:39 10.87357 106.79245 2562 ft 240 kts 247°
2026-05-04 12:39 10.86776 106.77725 2262 ft 222 kts 246°
2026-05-04 12:39 10.86245 106.76310 2042 ft 210 kts 246°
2026-05-04 12:40 10.85739 106.74963 1776 ft 196 kts 246°
2026-05-04 12:40 10.85284 106.73739 1527 ft 174 kts 245°
2026-05-04 12:40 10.84861 106.72639 1312 ft 163 kts 244°
2026-05-04 12:40 10.84457 106.71568 1100 ft 160 kts 245°
2026-05-04 12:41 10.84065 106.70530 908 ft 160 kts 245°
2026-05-04 12:41 10.83674 106.69472 720 ft 158 kts 247°
2026-05-04 12:41 10.83290 106.68427 542 ft 164 kts 244°
2026-05-04 12:41 10.82873 106.67344 318 ft 160 kts 246°
2026-05-04 12:42 10.82483 106.66301 65 ft 157 kts 245°
2026-05-04 12:42 10.82140 106.65405 43 ft 113 kts 249°
2026-05-04 12:42 10.81919 106.64817 42 ft 59 kts 249°
2026-05-04 12:42 10.81788 106.64493 43 ft 46 kts 239°
2026-05-04 12:43 10.81664 106.64350 41 ft 28 kts 220°
2026-05-04 12:43 10.81523 106.64300 41 ft 18 kts 166°
2026-05-04 12:43 10.81407 106.64344 43 ft 18 kts 159°
2026-05-04 12:43 10.81289 106.64389 42 ft 19 kts 159°
2026-05-04 12:44 10.81247 106.64432 42 ft 1 kts 95°
2026-05-04 12:44 10.81248 106.64442 42 ft 2 kts 83°
2026-05-04 12:44 10.81255 106.64466 43 ft 6 kts 71°
2026-05-04 12:44 10.81274 106.64519 44 ft 10 kts 70°
2026-05-04 12:45 10.81305 106.64601 45 ft 15 kts 68°
2026-05-04 12:45 10.81349 106.64716 45 ft 20 kts 69°
2026-05-04 12:45 10.81402 106.64858 48 ft 23 kts 69°
2026-05-04 12:45 10.81465 106.65023 45 ft 19 kts 69°
2026-05-04 12:46 10.81512 106.65149 43 ft 19 kts 69°
2026-05-04 12:46 10.81557 106.65268 42 ft 18 kts 69°
2026-05-04 12:46 10.81605 106.65397 40 ft 21 kts 69°
2026-05-04 12:46 10.81650 106.65515 41 ft 14 kts 69°
2026-05-04 12:47 10.81684 106.65604 42 ft 13 kts 69°
2026-05-04 12:47 10.81720 106.65698 41 ft 16 kts 69°
2026-05-04 12:47 10.81720 106.65781 40 ft 8 kts 127°
2026-05-04 12:47 10.81683 106.65847 39 ft 13 kts 107°
2026-05-04 12:48 10.81697 106.65940 42 ft 15 kts 70°
2026-05-04 12:48 10.81742 106.66059 43 ft 18 kts 69°
2026-05-04 12:48 10.81783 106.66169 43 ft 19 kts 69°
2026-05-04 12:48 10.81822 106.66272 43 ft 16 kts 69°
2026-05-04 12:49 10.81859 106.66370 43 ft 13 kts 68°
2026-05-04 12:49 10.81862 106.66391 43 ft 2 kts 103°
2026-05-04 12:49 10.81847 106.66411 43 ft 5 kts 141°
2026-05-04 12:49 10.81811 106.66427 43 ft 5 kts 160°
2026-05-04 12:50 10.81790 106.66435 43 ft 0 kts 159°
2026-05-04 12:50 10.81777 106.66440 43 ft 1 kts 159°
2026-05-04 12:50 10.81776 106.66440 43 ft 0 kts 159°
2026-05-04 12:51 10.81780 106.66439 43 ft 0 kts 159°
2026-05-04 12:51 10.81795 106.66433 43 ft 0 kts 159°